Regional Weather Roundup
Issued by NWS Jackson, KY

Home | Current Version | Previous Version | Graphics & Text | Print | Product List | Glossary On
Versions: 1 2 3 4 5 6 7 8 9 10 11 12 13 14 15 16 17 18 19 20 21 22 23 24 25 26 27 28 29 30 31 32 33 34 35 36 37 38 39 40 41 42 43 44 45 46 47 48 49 50
000
ASUS43 KJKL 220411
RWRJKL

EAST KENTUCKY HOURLY WEATHER ROUNDUP
NATIONAL WEATHER SERVICE JACKSON KY
1200 AM EDT MON SEP 22 2014

NOTE: "FAIR" INDICATES FEW OR NO CLOUDS BELOW 12,000 FEET WITH
NO SIGNIFICANT WEATHER AND/OR OBSTRUCTIONS TO VISIBILITY.

* THESE REPORTS ARE NOT UNDER NWS QUALITY CONTROL AND MAY NOT
  REPORT WEATHER SUCH AS PRECIPITATION AND FOG.

KYZ079-080-083-085-087-088-110-112-115-119-120-220500
...EASTERN KENTUCKY...

CITY           SKY/WX    TMP DP  RH WIND       PRES   REMARKS
JACKSON        CLEAR     62  48  60 N6        30.03R
LONDON         CLEAR     62  49  62 N7        30.05R
SOMERSET*      CLEAR     63  46  55 N5        30.06R
MONTICELLO*    CLEAR     56  52  86 N7        30.06R
MIDDLESBORO*   CLEAR     59  53  80 CALM      30.03R
HARLAN APT*    CLEAR     59  50  72 MISG      30.03S
HAZARD APT*    CLEAR     61  50  67 CALM      30.03
BLACK MTN*       N/A     52  46  82 N8          N/A
PIKEVILLE APT* CLEAR     61  48  63 N8        30.02R
BIG SANDY*     CLEAR     63  49  61 NW9       30.02R
MOREHEAD APT*  CLEAR     59  48  67 NW7       30.05R
$$

KYZ035-036-041-042-044-050-067-078-099-220500
...CENTRAL KENTUCKY...

CITY           SKY/WX    TMP DP  RH WIND       PRES   REMARKS
MT STERLING*   CLEAR     59  50  72 N5        30.06R
FLEMING/MASON* CLEAR     57  48  72 NW6G20    30.05R
DANVILLE*      CLEAR     55  48  76 N3        30.07R
RICHMOND*      CLEAR     59  48  67 N5        30.05R
LEXINGTON      CLEAR     60  49  66 N8        30.06R
FRANKFORT      CLEAR     59  48  67 NW6       30.06R
$$

KYZ091>093-OHZ055-061-077-WVZ005-015-034-035-042-220500
...SOUTHERN OHIO/WEST VIRGINIA...

CITY           SKY/WX    TMP DP  RH WIND       PRES   REMARKS
COVINGTON      CLEAR     58  47  66 N12       30.07R
COLUMBUS       CLOUDY    58  49  72 NW20G28   29.99R
DAYTON         PTCLDY    55  48  77 NW13      30.06R
WILMINGTON     CLEAR     56  47  71 NW10      30.03R
HUNTINGTON     CLEAR     61  48  62 NW6       29.99R
CHARLESTON     MOCLDY    64  48  56 W6        29.98R
PINEVILLE*     PTCLDY    56  56 100 MISG      30.04S FOG
BECKLEY        PTCLDY    57  49  74 W5        30.01R
BLUEFIELD      CLEAR     61  48  62 W12G20    30.02S
$$

VAZ002-007-008-TNZ017-027-036-066-071-220500
...SOUTHWEST VIRGINIA/EAST TENNESSEE...

CITY           SKY/WX    TMP DP  RH WIND       PRES   REMARKS
WISE*          CLEAR     59  45  58 NW6       30.06S
JONESVILLE*    CLEAR     64  50  59 CALM      30.05R
ABINGDON*      PTCLDY    65  51  62 N6        30.02S
BRISTOL        PTCLDY    64  52  64 NW5       30.02R
KNOXVILLE      PTCLDY    68  51  54 N13       30.00R
OAK RIDGE      CLEAR     66  51  58 CALM      30.03R
CROSSVILLE     CLEAR     62  49  62 N5        30.06S
NASHVILLE      CLEAR     68  50  52 N7        30.06R
$$

...KEY TO REMARKS...
VSB - VISIBILITY IN MILES
WCI - WIND CHILL INDEX
HX  - HEAT INDEX

$$


USA.gov is the U.S. government's official web portal to all federal, state and local government web resources and services.